Crane Lake, MN

12:00 PM CDT on March 27, 2017 (GMT -0500)
Crane Lake

Weather History for KCDD - December, 2011

Change the Weather History Date:

Sunday, December 11, 2011

  Actual Average Record
Temperature  
Mean Temperature 29 °F -  
Max Temperature 41 °F 25 °F 44 °F (1998)
Min Temperature 15 °F 10 °F -23 °F (2013)
Degree Days  
Heating Degree Days 36    
Moisture  
Dew Point 19 °F    
Average Humidity 76    
Maximum Humidity 93    
Minimum Humidity 45    
Precipitation  
Precipitation 0.00 in - - ()
Sea Level Pressure  
Sea Level Pressure 29.87 in    
Wind  
Wind Speed 4 mph (South)    
Max Wind Speed 10 mph    
Max Gust Speed -    
Visibility 10 miles    
Events      
Averages and records for this station are not official NWS values.
T = Trace of Precipitation, MM = Missing Value Source: NWS Daily Summary

Daily Weather History Graph

Daily Weather History Graph

Search for Another Location

Airport or City:

Trip Planner

Search our weather history database for the weather conditions in past years. The results will help you decide how hot, cold, wet, or windy it might be!

Date:

Astronomy

Dec. 11, 2011 Rise Set
Actual Time 7:50 AM CST 4:15 PM CST
Civil Twilight 7:14 AM CST 4:52 PM CST
Nautical Twilight 6:34 AM CST 5:31 PM CST
Astronomical Twilight 5:56 AM CST 6:09 PM CST
Moon 5:26 PM CST (12/11) 8:39 AM CST (12/11)
Length of Visible Light 9h 37m
Length of Day
8h 24m
Full, 99% of the Moon is Illuminated
Dec 11
Full
Dec 17
Last Quarter
Dec 24
New
Jan 1
First Quarter
Jan 9
Full

Hourly Weather History & Observations

Time (CST) Temp. Windchill Dew Point Humidity Pressure Visibility Wind Dir Wind Speed Gust Speed Precip Events Conditions
12:10 AM 17.6 °F 10.7 °F 12.2 °F 79% 29.89 in 10.0 mi SSE 4.6 mph - N/A   Clear
12:30 AM 17.6 °F 12.3 °F 12.2 °F 79% 29.88 in 10.0 mi SSE 3.5 mph - N/A   Clear
12:50 AM 17.6 °F 12.3 °F 12.2 °F 79% 29.87 in 10.0 mi SSE 3.5 mph - N/A   Clear
1:10 AM 19.4 °F - 14.0 °F 80% 29.87 in 10.0 mi Calm Calm - N/A   Clear
1:30 AM 17.6 °F 10.7 °F 14.0 °F 86% 29.86 in 10.0 mi SSE 4.6 mph - N/A   Scattered Clouds
1:50 AM 17.6 °F 12.3 °F 14.0 °F 86% 29.86 in 10.0 mi SSE 3.5 mph - N/A   Clear
2:10 AM 17.6 °F 10.7 °F 14.0 °F 86% 29.85 in 10.0 mi SSE 4.6 mph - N/A   Clear
2:30 AM 19.4 °F 11.5 °F 15.8 °F 86% 29.85 in 10.0 mi SSE 5.8 mph - N/A   Clear
3:10 AM 19.4 °F 12.8 °F 15.8 °F 86% 29.84 in 10.0 mi SSE 4.6 mph - N/A   Clear
3:30 AM 19.4 °F 11.5 °F 15.8 °F 86% 29.83 in 10.0 mi South 5.8 mph - N/A   Clear
3:50 AM 19.4 °F 10.4 °F 15.8 °F 86% 29.82 in 10.0 mi South 6.9 mph - N/A   Clear
4:10 AM 19.4 °F 10.4 °F 15.8 °F 86% 29.82 in 10.0 mi South 6.9 mph - N/A   Clear
4:30 AM 19.4 °F 11.5 °F 15.8 °F 86% 29.81 in 10.0 mi South 5.8 mph - N/A   Clear
4:50 AM 21.2 °F 13.6 °F 17.6 °F 86% 29.80 in 10.0 mi SSE 5.8 mph - N/A   Clear
5:10 AM 21.2 °F 13.6 °F 17.6 °F 86% 29.80 in 10.0 mi South 5.8 mph - N/A   Clear
5:30 AM 21.2 °F 16.4 °F 17.6 °F 86% 29.80 in 10.0 mi SSE 3.5 mph - N/A   Clear
6:10 AM 21.2 °F 16.4 °F 17.6 °F 86% 29.81 in 10.0 mi SSE 3.5 mph - N/A   Clear
6:30 AM 19.4 °F 14.3 °F 17.6 °F 93% 29.81 in 10.0 mi SSE 3.5 mph - N/A   Clear
6:50 AM 19.4 °F 14.3 °F 17.6 °F 93% 29.81 in 10.0 mi SSE 3.5 mph - N/A   Clear
7:10 AM 21.2 °F 12.6 °F 17.6 °F 86% 29.81 in 10.0 mi South 6.9 mph - N/A   Clear
7:30 AM 21.2 °F 13.6 °F 17.6 °F 86% 29.80 in 10.0 mi SSE 5.8 mph - N/A   Clear
7:50 AM 21.2 °F 12.6 °F 17.6 °F 86% 29.81 in 10.0 mi South 6.9 mph - N/A   Clear
8:10 AM 23.0 °F 13.9 °F 19.4 °F 86% 29.81 in 10.0 mi South 8.1 mph - N/A   Clear
8:30 AM 24.8 °F 16.9 °F 19.4 °F 80% 29.80 in 10.0 mi South 6.9 mph - N/A   Clear
8:50 AM 24.8 °F 16.9 °F 19.4 °F 80% 29.80 in 10.0 mi South 6.9 mph - N/A   Clear
9:10 AM 26.6 °F 22.6 °F 19.4 °F 74% 29.80 in 10.0 mi South 3.5 mph - N/A   Clear
9:30 AM 28.4 °F 22.2 °F 21.2 °F 74% 29.81 in 10.0 mi South 5.8 mph - N/A   Clear
9:50 AM 30.2 °F 26.7 °F 21.2 °F 69% 29.81 in 10.0 mi South 3.5 mph - N/A   Scattered Clouds
10:10 AM 33.8 °F - 21.2 °F 60% 29.82 in 10.0 mi Calm Calm - N/A   Clear
10:30 AM 35.6 °F 29.9 °F 21.2 °F 56% 29.83 in 10.0 mi SW 6.9 mph - N/A   Clear
10:50 AM 35.6 °F 29.9 °F 21.2 °F 56% 29.83 in 10.0 mi SSW 6.9 mph - N/A   Clear
11:10 AM 37.4 °F 32.1 °F 21.2 °F 52% 29.83 in 10.0 mi WSW 6.9 mph - N/A   Clear
11:30 AM 37.4 °F 30.3 °F 21.2 °F 52% 29.83 in 10.0 mi SSW 10.4 mph - N/A   Clear
11:50 AM 37.4 °F 33.8 °F 21.2 °F 52% 29.82 in 10.0 mi SW 4.6 mph - N/A   Clear
12:10 PM 37.4 °F 32.8 °F 23.0 °F 56% 29.82 in 10.0 mi South 5.8 mph - N/A   Clear
12:30 PM 39.2 °F 34.2 °F 21.2 °F 49% 29.82 in 10.0 mi SSW 6.9 mph - N/A   Clear
12:50 PM 39.2 °F 34.2 °F 21.2 °F 49% 29.83 in 10.0 mi SW 6.9 mph - N/A   Clear
1:10 PM 39.2 °F 37.0 °F 21.2 °F 49% 29.83 in 10.0 mi SSW 3.5 mph - N/A   Clear
1:30 PM 41.0 °F 37.1 °F 21.2 °F 45% 29.84 in 10.0 mi WSW 5.8 mph - N/A   Clear
1:50 PM 41.0 °F 35.8 °F 23.0 °F 49% 29.84 in 10.0 mi SSW 8.1 mph - N/A   Clear
2:10 PM 41.0 °F 38.0 °F 23.0 °F 49% 29.85 in 10.0 mi SW 4.6 mph - N/A   Clear
2:30 PM 41.0 °F 37.1 °F 23.0 °F 49% 29.85 in 10.0 mi SSW 5.8 mph - N/A   Clear
2:50 PM 41.0 °F 37.1 °F 23.0 °F 49% 29.86 in 10.0 mi SSW 5.8 mph - N/A   Clear
3:10 PM 41.0 °F 39.0 °F 23.0 °F 49% 29.87 in 10.0 mi SW 3.5 mph - N/A   Clear
3:30 PM 39.2 °F - 23.0 °F 52% 29.87 in 10.0 mi Calm Calm - N/A   Clear
3:50 PM 35.6 °F 32.8 °F 23.0 °F 60% 29.89 in 10.0 mi South 3.5 mph - N/A   Clear
4:10 PM 30.2 °F - 23.0 °F 75% 29.90 in 10.0 mi Calm Calm - N/A   Clear
4:30 PM 28.4 °F - 23.0 °F 80% 29.91 in 10.0 mi Calm Calm - N/A   Clear
5:10 PM 26.6 °F - 21.2 °F 80% 29.93 in 10.0 mi Calm Calm - N/A   Clear
5:30 PM 26.6 °F - 21.2 °F 80% 29.94 in 10.0 mi Calm Calm - N/A   Clear
5:50 PM 24.8 °F - 21.2 °F 86% 29.94 in 10.0 mi Calm Calm - N/A   Clear
6:10 PM 23.0 °F - 19.4 °F 86% 29.95 in 10.0 mi Calm Calm - N/A   Clear
6:30 PM 21.2 °F - 19.4 °F 93% 29.95 in 10.0 mi Calm Calm - N/A   Clear
6:50 PM 21.2 °F - 19.4 °F 93% 29.97 in 10.0 mi Calm Calm - N/A   Clear
7:10 PM 21.2 °F - 19.4 °F 93% 29.97 in 10.0 mi Calm Calm - N/A   Clear
7:30 PM 19.4 °F - 17.6 °F 93% 29.98 in 10.0 mi Calm Calm - N/A   Clear
7:50 PM 19.4 °F - 17.6 °F 93% 29.99 in 10.0 mi Calm Calm - N/A   Clear
8:10 PM 19.4 °F - 17.6 °F 93% 29.99 in 10.0 mi Calm Calm - N/A   Clear
8:30 PM 17.6 °F - 15.8 °F 93% 30.00 in 10.0 mi Calm Calm - N/A   Clear
8:50 PM 17.6 °F - 15.8 °F 93% 30.00 in 10.0 mi Calm Calm - N/A   Clear
9:10 PM 17.6 °F - 15.8 °F 93% 30.02 in 10.0 mi Calm Calm - N/A   Clear
9:30 PM 15.8 °F - 14.0 °F 93% 30.02 in 10.0 mi Calm Calm - N/A   Clear
9:50 PM 15.8 °F - 14.0 °F 93% 30.02 in 10.0 mi Calm Calm - N/A   Clear
10:10 PM 15.8 °F - 12.2 °F 86% 30.03 in 10.0 mi Calm Calm - N/A   Clear
10:50 PM 14.0 °F - 12.2 °F 93% 30.04 in 10.0 mi Calm Calm - N/A   Clear
11:30 PM 12.2 °F - 12.2 °F 100% 30.05 in 10.0 mi Calm Calm - N/A   Scattered Clouds
11:50 PM 12.2 °F - 10.4 °F 92% 30.06 in 10.0 mi Calm Calm - N/A   Scattered Clouds